TimeAWST,TemperatureF,Dew PointF,Humidity,Sea Level PressureIn,VisibilityMPH,Wind Direction,Wind SpeedMPH,Gust SpeedMPH,PrecipitationIn,Events,Conditions,WindDirDegrees,DateUTC
12:00 AM,80,73,74,29.81,,North,3.5,,,,,0,2013-12-07 16:00:00
12:00 AM,80.6,73.4,79,29.80,6.2,North,3.5,-,N/A,,Unknown,360,2013-12-07 16:00:00
12:30 AM,80.6,73.4,79,29.80,6.2,North,6.9,-,N/A,,Unknown,10,2013-12-07 16:30:00
1:00 AM,78.8,75.2,89,29.80,6.2,North,2.3,-,N/A,,Unknown,10,2013-12-07 17:00:00
1:30 AM,78.8,75.2,89,29.80,6.2,Calm,Calm,-,N/A,,Unknown,0,2013-12-07 17:30:00
2:00 AM,80,75,80,29.79,,Calm,Calm,,,,,,2013-12-07 18:00:00
2:00 AM,78.8,75.2,89,29.80,6.2,Calm,Calm,-,N/A,,Unknown,0,2013-12-07 18:00:00
2:30 AM,78.8,75.2,89,29.77,6.2,Calm,Calm,-,N/A,,Unknown,0,2013-12-07 18:30:00
3:00 AM,79,76,87,29.78,,Calm,Calm,,,,,,2013-12-07 19:00:00
3:00 AM,78.8,75.2,89,29.77,6.2,Calm,Calm,-,N/A,,Unknown,0,2013-12-07 19:00:00
3:30 AM,78.8,75.2,89,29.80,6.2,Calm,Calm,-,N/A,,Unknown,0,2013-12-07 19:30:00
4:00 AM,77.0,75.2,94,29.80,6.2,Calm,Calm,-,N/A,,Unknown,0,2013-12-07 20:00:00
4:30 AM,77.0,73.4,89,29.80,6.2,Calm,Calm,-,N/A,,Unknown,0,2013-12-07 20:30:00
5:00 AM,77,74,88,29.80,,North,1.2,,,,,0,2013-12-07 21:00:00
5:00 AM,77.0,73.4,89,29.80,6.2,North,1.2,-,N/A,,Unknown,360,2013-12-07 21:00:00
5:30 AM,80.6,75.2,84,29.80,6.2,Calm,Calm,-,N/A,,Unknown,0,2013-12-07 21:30:00
6:00 AM,85,74,62,29.82,,WSW,4.6,,,,,240,2013-12-07 22:00:00
6:00 AM,84.2,73.4,70,29.80,6.2,WSW,4.6,-,N/A,,Unknown,240,2013-12-07 22:00:00
6:30 AM,87.8,73.4,62,29.83,6.2,SW,6.9,-,N/A,,Unknown,220,2013-12-07 22:30:00
7:00 AM,89.6,73.4,59,29.83,6.2,SSW,6.9,-,N/A,,Unknown,210,2013-12-07 23:00:00
7:30 AM,91.4,71.6,52,29.83,6.2,SW,6.9,-,N/A,,Unknown,220,2013-12-07 23:30:00
8:00 AM,94,72,39,29.83,,SSE,8.1,,,,,150,2013-12-08 00:00:00
8:00 AM,93.2,71.6,49,29.83,6.2,SSE,8.1,-,N/A,,Unknown,150,2013-12-08 00:00:00
8:30 AM,95.0,69.8,44,29.83,6.2,SE,6.9,-,N/A,,Unknown,140,2013-12-08 00:30:00
9:00 AM,96,70,33,29.82,,SSW,5.8,,,,,210,2013-12-08 01:00:00
9:00 AM,96.8,69.8,41,29.83,6.2,SSW,5.8,-,N/A,,Unknown,210,2013-12-08 01:00:00
9:30 AM,96.8,68.0,39,29.80,6.2,SE,5.8,-,N/A,,Unknown,130,2013-12-08 01:30:00
10:00 AM,98.6,66.2,35,29.80,6.2,ESE,8.1,-,N/A,,Unknown,120,2013-12-08 02:00:00
10:30 AM,98.6,66.2,35,29.80,6.2,SE,5.8,-,N/A,,Unknown,140,2013-12-08 02:30:00
11:00 AM,99,67,26,29.78,,SE,8.1,,,,,130,2013-12-08 03:00:00
11:00 AM,98.6,68.0,37,29.77,6.2,SE,8.1,-,N/A,,Unknown,130,2013-12-08 03:00:00
11:30 AM,100.4,66.2,33,29.77,6.2,South,6.9,-,N/A,,Scattered Clouds,170,2013-12-08 03:30:00
12:00 PM,101,64,21,29.75,,South,5.8,,,,,170,2013-12-08 04:00:00
12:00 PM,100.4,64.4,31,29.74,6.2,South,5.8,-,N/A,,Mostly Cloudy,170,2013-12-08 04:00:00
12:30 PM,102.2,62.6,27,29.74,6.2,South,5.8,-,N/A,,Scattered Clouds,190,2013-12-08 04:30:00
1:00 PM,102.2,64.4,29,29.71,6.2,SSE,6.9,-,N/A,,Scattered Clouds,160,2013-12-08 05:00:00
1:30 PM,104.0,62.6,26,29.71,6.2,East,5.8,-,N/A,,Scattered Clouds,80,2013-12-08 05:30:00
2:00 PM,103,62,18,29.70,,SE,8.1,,,,,140,2013-12-08 06:00:00
2:00 PM,102.2,62.6,27,29.68,6.2,SE,8.1,-,N/A,,Scattered Clouds,140,2013-12-08 06:00:00
2:30 PM,102.2,59.0,24,29.68,6.2,ESE,8.1,-,N/A,,Scattered Clouds,110,2013-12-08 06:30:00
3:00 PM,104,58,14,29.67,,SSE,5.8,,,,,150,2013-12-08 07:00:00
3:00 PM,104.0,57.2,21,29.68,6.2,SSE,5.8,-,N/A,,Scattered Clouds,150,2013-12-08 07:00:00
3:30 PM,104.0,57.2,21,29.65,6.2,ENE,10.4,-,N/A,,Scattered Clouds,60,2013-12-08 07:30:00
4:00 PM,104.0,57.2,21,29.65,6.2,NE,12.7,-,N/A,,Unknown,40,2013-12-08 08:00:00
4:30 PM,104.0,57.2,21,29.65,6.2,NNE,8.1,-,N/A,,Scattered Clouds,20,2013-12-08 08:30:00
5:00 PM,99,67,26,29.68,,North,13.8,,,,,10,2013-12-08 09:00:00
5:00 PM,98.6,66.2,35,29.68,6.2,North,13.8,-,N/A,,Mostly Cloudy,10,2013-12-08 09:00:00
5:30 PM,96.8,69.8,41,29.68,6.2,NNW,10.4,-,N/A,,Mostly Cloudy,340,2013-12-08 09:30:00
6:00 PM,94,70,35,29.71,,North,10.4,,,,,0,2013-12-08 10:00:00
6:00 PM,95.0,69.8,44,29.71,6.2,North,10.4,-,N/A,,Mostly Cloudy,360,2013-12-08 10:00:00
6:30 PM,93.2,69.8,46,29.71,6.2,North,8.1,-,N/A,,Mostly Cloudy,350,2013-12-08 10:30:00
7:00 PM,91.4,69.8,49,29.74,6.2,North,6.9,-,N/A,,Unknown,360,2013-12-08 11:00:00
7:30 PM,89.6,69.8,52,29.74,6.2,North,8.1,-,N/A,,Unknown,360,2013-12-08 11:30:00
8:00 PM,88,70,45,29.75,,North,8.1,,,,,10,2013-12-08 12:00:00
8:00 PM,87.8,69.8,55,29.74,6.2,North,8.1,-,N/A,,Unknown,10,2013-12-08 12:00:00
8:30 PM,86.0,71.6,62,29.74,6.2,NNE,6.9,-,N/A,,Unknown,20,2013-12-08 12:30:00
9:00 PM,86,72,55,29.75,,North,3.5,,,,,10,2013-12-08 13:00:00
9:00 PM,86.0,71.6,62,29.74,6.2,North,3.5,-,N/A,,Unknown,10,2013-12-08 13:00:00
9:30 PM,86.0,73.4,66,29.74,6.2,NNE,6.9,-,N/A,,Unknown,20,2013-12-08 13:30:00
10:00 PM,86.0,73.4,66,29.74,6.2,NNE,8.1,-,N/A,,Unknown,20,2013-12-08 14:00:00
10:30 PM,84.2,73.4,70,29.74,6.2,NNE,8.1,-,N/A,,Unknown,20,2013-12-08 14:30:00
11:00 PM,83,74,68,29.75,,North,8.1,,,,,0,2013-12-08 15:00:00
11:00 PM,84.2,73.4,70,29.74,6.2,North,8.1,-,N/A,,Unknown,360,2013-12-08 15:00:00
11:30 PM,84.2,75.2,74,29.74,6.2,North,11.5,-,N/A,,Unknown,360,2013-12-08 15:30:00